Weather History for KGCM

Nearest airport to NA, NA.

See history from more local stations
Change the Weather History Date:

Monday, June 3, 2013

  Actual Average (KTUL) Record (KTUL)
Temperature  
Mean Temperature 64 °F 74 °F  
Max Temperature 77 °F 84 °F 101 °F (1911)
Min Temperature 50 °F 64 °F 52 °F (1946)
Degree Days  
Heating Degree Days 2    
Cooling Degree Days 0 9  
Month to date cooling degree days 27  
Year to date cooling degree days 261  
Since 1 June cooling degree days 27  
Growing Degree Days 14 (Base 50)    
Moisture  
Dew Point 56 °F    
Average Humidity 78    
Maximum Humidity 100    
Minimum Humidity 50    
Precipitation  
Precipitation 0.00 in 0.18 in 2.30 in (2010)
Month to date precipitation 0.55  
Year to date precipitation 17.05  
Sea Level Pressure  
Sea Level Pressure 30.00 in    
Wind  
Wind Speed 5 mph (SE)    
Max Wind Speed 10 mph    
Max Gust Speed -    
Visibility 9 miles    
Events      
T = Trace of Precipitation, MM = Missing Value Source: NWS Daily Summary

Daily Weather History Graph

Daily Weather History Graph

Search for Another Location

Airport or City:

Trip Planner

Search our weather history database for the weather conditions in past years. The results will help you decide how hot, cold, wet, or windy it might be!

Date:

Astronomy

Jun. 03, 2013 Rise Set
Actual Time 6:05 AM CDT 8:35 PM CDT
Civil Twilight 5:35 AM CDT 9:05 PM CDT
Nautical Twilight 4:58 AM CDT 9:42 PM CDT
Astronomical Twilight 4:17 AM CDT 10:23 PM CDT
Moon 2:55 AM CDT (6/3) 4:13 PM CDT (6/3)
Length of Visible Light 15h 30m
Length of Day
14h 30m
Waning Crescent, 22% of the Moon is Illuminated
Jun 3
Waning Crescent
Jun 8
New
Jun 16
First Quarter
Jun 23
Full
Jun 29
Last Quarter

Hourly Weather History & Observations

Time (CDT) Temp. Dew Point Humidity Pressure Visibility Wind Dir Wind Speed Gust Speed Precip Events Conditions
12:15 AM 53.6 °F 51.8 °F 94% 30.06 in 10.0 mi NE 4.6 mph - N/A   Clear
12:35 AM 51.8 °F 51.8 °F 100% 30.06 in 10.0 mi NNE 3.5 mph - N/A   Clear
12:55 AM 51.8 °F 51.8 °F 100% 30.07 in 10.0 mi NNE 3.5 mph - N/A   Clear
1:15 AM 51.8 °F 50.0 °F 94% 30.08 in 10.0 mi Calm Calm - N/A   Clear
1:35 AM 51.8 °F 50.0 °F 94% 30.08 in 7.0 mi Calm Calm - N/A   Clear
1:55 AM 51.8 °F 50.0 °F 94% 30.07 in 7.0 mi Calm Calm - N/A   Clear
2:15 AM 50.0 °F 50.0 °F 100% 30.06 in 7.0 mi ENE 3.5 mph - N/A   Clear
2:35 AM 51.8 °F 51.8 °F 100% 30.06 in 7.0 mi ENE 3.5 mph - N/A   Clear
2:55 AM 51.8 °F 50.0 °F 94% 30.06 in 7.0 mi ENE 4.6 mph - N/A   Clear
3:15 AM 51.8 °F 50.0 °F 94% 30.06 in 7.0 mi ENE 5.8 mph - N/A   Clear
3:35 AM 51.8 °F 50.0 °F 94% 30.06 in 5.0 mi ENE 4.6 mph - N/A   Clear
3:55 AM 51.8 °F 50.0 °F 94% 30.07 in 7.0 mi ENE 3.5 mph - N/A   Clear
4:15 AM 51.8 °F 50.0 °F 94% 30.07 in 5.0 mi Calm Calm - N/A   Clear
4:35 AM 51.8 °F 50.0 °F 94% 30.07 in 5.0 mi East 4.6 mph - N/A   Clear
4:55 AM 51.8 °F 50.0 °F 94% 30.07 in 5.0 mi ENE 3.5 mph - N/A   Clear
5:15 AM 50.0 °F 50.0 °F 100% 30.06 in 4.0 mi ENE 4.6 mph - N/A   Clear
5:35 AM 50.0 °F 50.0 °F 100% 30.06 in 4.0 mi East 3.5 mph - N/A   Clear
5:55 AM 51.8 °F 50.0 °F 94% 30.06 in 4.0 mi Calm Calm - N/A   Clear
6:15 AM 50.0 °F 50.0 °F 100% 30.06 in 4.0 mi ENE 3.5 mph - N/A   Clear
6:35 AM 51.8 °F 50.0 °F 94% 30.06 in 4.0 mi NE 4.6 mph - N/A   Clear
6:55 AM 51.8 °F 51.8 °F 100% 30.06 in 5.0 mi ENE 3.5 mph - N/A   Clear
7:15 AM 53.6 °F 53.6 °F 100% 30.07 in 5.0 mi Calm Calm - N/A   Clear
7:35 AM 55.4 °F 53.6 °F 94% 30.06 in 7.0 mi East 3.5 mph - N/A   Clear
7:55 AM 57.2 °F 55.4 °F 94% 30.06 in 7.0 mi East 6.9 mph - N/A   Clear
8:15 AM 57.2 °F 53.6 °F 88% 30.06 in 7.0 mi East 6.9 mph - N/A   Clear
8:35 AM 59.0 °F 55.4 °F 88% 30.05 in 7.0 mi ESE 6.9 mph - N/A   Clear
8:55 AM 60.8 °F 55.4 °F 82% 30.05 in 10.0 mi ESE 9.2 mph - N/A   Clear
9:15 AM 60.8 °F 55.4 °F 82% 30.05 in 10.0 mi SE 6.9 mph - N/A   Clear
9:35 AM 62.6 °F 57.2 °F 82% 30.06 in 10.0 mi SSE 4.6 mph - N/A   Clear
9:55 AM 64.4 °F 59.0 °F 83% 30.06 in 10.0 mi SE 5.8 mph - N/A   Clear
10:15 AM 64.4 °F 59.0 °F 83% 30.05 in 10.0 mi SE 4.6 mph - N/A   Clear
10:35 AM 66.2 °F 59.0 °F 78% 30.05 in 10.0 mi SSE 5.8 mph - N/A   Scattered Clouds
10:55 AM 68.0 °F 59.0 °F 73% 30.04 in 10.0 mi South 6.9 mph - N/A   Scattered Clouds
11:15 AM 68.0 °F 59.0 °F 73% 30.04 in 10.0 mi South 9.2 mph - N/A   Clear
11:35 AM 68.0 °F 59.0 °F 73% 30.03 in 10.0 mi SE 5.8 mph - N/A   Scattered Clouds
11:55 AM 69.8 °F 59.0 °F 68% 30.04 in 10.0 mi South 4.6 mph - N/A   Scattered Clouds
12:15 PM 71.6 °F 59.0 °F 64% 30.03 in 10.0 mi South 4.6 mph - N/A   Scattered Clouds
12:35 PM 71.6 °F 60.8 °F 69% 30.03 in 10.0 mi SSE 5.8 mph - N/A   Scattered Clouds
12:55 PM 73.4 °F 60.8 °F 65% 30.02 in 10.0 mi South 8.1 mph - N/A   Scattered Clouds
1:15 PM 73.4 °F 59.0 °F 61% 30.01 in 10.0 mi SE 3.5 mph - N/A   Clear
1:35 PM 73.4 °F 59.0 °F 61% 30.00 in 10.0 mi South 6.9 mph - N/A   Clear
1:55 PM 73.4 °F 60.8 °F 65% 30.00 in 10.0 mi SSW 6.9 mph - N/A   Clear
2:15 PM 73.4 °F 60.8 °F 65% 29.99 in 10.0 mi SSW 6.9 mph - N/A   Clear
2:35 PM 75.2 °F 59.0 °F 57% 29.98 in 10.0 mi South 8.1 mph - N/A   Clear
2:55 PM 75.2 °F 60.8 °F 61% 29.98 in 10.0 mi South 6.9 mph - N/A   Clear
3:15 PM 77.0 °F 60.8 °F 57% 29.97 in 10.0 mi SE 8.1 mph - N/A   Clear
3:35 PM 77.0 °F 60.8 °F 57% 29.96 in 5.0 mi SSE 4.6 mph - N/A   Haze
3:55 PM 77.0 °F 60.8 °F 57% 29.95 in 10.0 mi SSE 9.2 mph - N/A   Clear
4:15 PM 77.0 °F 60.8 °F 57% 29.95 in 10.0 mi SSE 9.2 mph - N/A   Clear
4:35 PM 77.0 °F 59.0 °F 54% 29.94 in 10.0 mi South 8.1 mph - N/A   Clear
4:55 PM 77.0 °F 59.0 °F 54% 29.93 in 10.0 mi South 5.8 mph - N/A   Clear
5:15 PM 77.0 °F 60.8 °F 57% 29.93 in 10.0 mi SE 8.1 mph - N/A   Clear
5:35 PM 77.0 °F 60.8 °F 57% 29.92 in 10.0 mi SSE 8.1 mph - N/A   Clear
5:55 PM 77.0 °F 59.0 °F 54% 29.92 in 10.0 mi SSE 9.2 mph - N/A   Clear
6:15 PM 77.0 °F 59.0 °F 54% 29.91 in 10.0 mi SSE 10.4 mph - N/A   Clear
6:35 PM 77.0 °F 57.2 °F 50% 29.91 in 10.0 mi SSE 10.4 mph - N/A   Clear
6:55 PM 77.0 °F 57.2 °F 50% 29.91 in 10.0 mi SSE 10.4 mph - N/A   Clear
7:15 PM 75.2 °F 59.0 °F 57% 29.90 in 10.0 mi SSE 10.4 mph - N/A   Clear
7:35 PM 73.4 °F 59.0 °F 61% 29.91 in 10.0 mi SSE 8.1 mph - N/A   Clear
7:55 PM 71.6 °F 59.0 °F 64% 29.91 in 10.0 mi SE 6.9 mph - N/A   Clear
8:15 PM 69.8 °F 60.8 °F 73% 29.90 in 10.0 mi SE 6.9 mph - N/A   Clear
8:35 PM 69.8 °F 60.8 °F 73% 29.90 in 10.0 mi ESE 6.9 mph - N/A   Clear
8:55 PM 69.8 °F 60.8 °F 73% 29.89 in 10.0 mi ESE 8.1 mph - N/A   Clear
9:15 PM 69.8 °F 60.8 °F 73% 29.90 in 10.0 mi ESE 5.8 mph - N/A   Clear
9:35 PM 69.8 °F 60.8 °F 73% 29.91 in 10.0 mi ESE 5.8 mph - N/A   Clear
9:55 PM 68.0 °F 60.8 °F 78% 29.91 in 10.0 mi ESE 8.1 mph - N/A   Clear
10:15 PM 68.0 °F 60.8 °F 78% 29.92 in 10.0 mi ESE 5.8 mph - N/A   Clear
10:35 PM 68.0 °F 60.8 °F 78% 29.93 in 10.0 mi ESE 5.8 mph - N/A   Clear
10:55 PM 66.2 °F 60.8 °F 83% 29.94 in 10.0 mi East 5.8 mph - N/A   Clear
11:15 PM 66.2 °F 59.0 °F 78% 29.95 in 10.0 mi ESE 5.8 mph - N/A   Clear
11:35 PM 66.2 °F 59.0 °F 78% 29.95 in 10.0 mi ESE 6.9 mph - N/A   Clear
11:55 PM 66.2 °F 59.0 °F 78% 29.95 in 10.0 mi ESE 5.8 mph - N/A   Clear